Location: City of Moscow
(46.7306°N, 116.9989°W)
Time: 07:08:24
(UTC+00:00)

USA 234 - Pass Details

Date: 07 March 2026
Orbit: 1102 x 1106 km, 123.0° (Epoch: 4 January)

Event Time Altitude Azimuth Distance (km) Brightness Sun altitude
Exits shadow 04:21:21 66° 108° (ESE) 1,198 3.1 -27.6°
Maximum altitude 04:22:23 83° 34° (NE) 1,116 3.1 -27.8°
Drops below altitude 10° 04:28:57 10° 308° (NW) 2,970 6.4 -28.8°
Sets 04:31:26 0° 308° (NW) 3,931 7.3 -29.2°
